[[{"header":{"parameterUnit":"m.s-1","parameterCategory":2,"la1":30.2991,"la2":30.254,"lo1":-89.0895,"lo2":-89.0444,"dy":0.0017,"dx":0.0017,"nx":28,"ny":28,"refTime":"2024-11-25T03:00:00:Z","depth":"0","parameterNumber":2,"parameterNumberName":"U-component_of_CURRENTS"},"data":[0,0,0,0,0,0,0,0,0,0,0,0,0,0,0,0,0,0,0,0,0,0,0,0,0,0,0,0,0,0,0,0,0,0,0,0,0,0,0,0,0,0,0,0,0,0,0,0,0,0,0,0,0,0,0,0,0,0,-0.234,-0.234,0,-0.233,-0.233,-0.2329,-0.2327,-0.2327,-0.2327,-0.2328,-0.234,-0.234,-0.234,0,0,0,0,0,0,0,0,0,0,0,0,0,-0.238,-0.2379,-0.234,-0.234,-0.234,-0.233,-0.233,-0.2329,-0.2327,-0.2327,-0.2327,-0.2328,-0.234,-0.234,-0.234,0,0,0,0,0,0,0,0,0,0,0,0,0,-0.2364,-0.2379,-0.234,-0.2339,-0.2339,-0.233,-0.233,-0.2329,-0.2327,-0.2327,-0.2328,-0.2328,-0.234,-0.234,-0.234,-0.2333,0,0,-0.2341,-0.2341,0,0,0,0,0,0,0,0,-0.2364,-0.2362,-0.2339,-0.234,-0.234,-0.2332,-0.2348,-0.2332,-0.2327,-0.2329,-0.2328,-0.2328,-0.2341,-0.2341,-0.2334,-0.2333,-0.2334,-0.2341,-0.2341,-0.2341,-0.2341,0,0,0,0,0,0,0,-0.2366,-0.2362,-0.2334,-0.234,-0.234,-0.2348,-0.2345,-0.2345,-0.2331,-0.2329,-0.2329,-0.2332,-0.2341,-0.2334,-0.2335,-0.2334,-0.2341,-0.2341,-0.2341,-0.2341,-0.2333,-0.2333,0,0,0,0,0,0,-0.2369,-0.2363,-0.2334,-0.2334,-0.2356,-0.2347,-0.2344,-0.2332,-0.2331,-0.2332,-0.2331,-0.2332,-0.2334,-0.2335,-0.2335,-0.2331,-0.2341,-0.2341,-0.2341,-0.2334,-0.2333,-0.2333,0,0,0,0,0,0,-0.237,-0.2366,-0.2335,-0.2351,-0.2348,-0.2346,-0.2332,-0.2332,-0.2324,-0.2333,-0.2334,-0.2325,-0.2334,-0.2335,-0.2335,-0.2332,-0.2341,-0.2341,-0.2334,-0.2333,-0.2333,-0.232,0,0,0,0,0,0,-0.2371,-0.2366,-0.2358,-0.2351,-0.2347,-0.2326,-0.2332,-0.2331,-0.2326,-0.2326,-0.2328,-0.2329,-0.2335,-0.2334,-0.2335,-0.2332,-0.2341,-0.2334,-0.2334,-0.2333,-0.2321,-0.2319,-0.2318,0,0,0,0,0,-0.2372,-0.2361,-0.2357,-0.2354,-0.2336,-0.2326,-0.2324,-0.2323,-0.2326,-0.2318,-0.2322,-0.2329,-0.2331,-0.2334,-0.2335,-0.2332,-0.2334,-0.2334,-0.2333,-0.2321,-0.2319,-0.2318,0,0,0,0,0,0,-0.2369,-0.2359,-0.2356,-0.234,-0.2333,-0.2326,-0.2322,-0.232,-0.2316,-0.2317,-0.2324,-0.2326,-0.2325,-0.2328,-0.2331,-0.2328,-0.2334,-0.2334,-0.2325,-0.2323,-0.2322,-0.2328,-0.2341,0,0,0,0,0,-0.2366,-0.2355,-0.2347,-0.2333,-0.233,-0.2324,-0.232,-0.2318,-0.2316,-0.2313,-0.2317,-0.232,-0.2322,-0.2323,-0.2325,-0.2321,-0.231,-0.232,-0.2318,-0.2317,-0.2322,-0.2296,-0.2292,-0.2331,-0.2331,-0.2331,0,0,-0.236,-0.2354,-0.2347,-0.2332,-0.2326,-0.233,-0.2322,-0.2314,-0.2318,-0.2316,-0.2321,-0.2316,-0.232,-0.2318,-0.2318,-0.232,-0.2298,-0.2316,-0.2315,-0.2321,-0.2295,-0.2291,-0.2288,-0.233,-0.2331,-0.2331,0,0,-0.236,-0.2338,-0.2339,-0.2333,-0.2328,-0.2326,-0.2324,-0.2316,-0.2313,-0.2312,-0.2314,-0.2303,-0.231,-0.2306,-0.2308,-0.2298,-0.2292,-0.2301,-0.2297,-0.2271,-0.2268,-0.2265,-0.2234,-0.2229,-0.2299,-0.2299,-0.2299,0,-0.2362,-0.2356,-0.2337,-0.2342,-0.2343,-0.2327,-0.2335,-0.2327,-0.2322,-0.2315,-0.2316,-0.2304,-0.2306,-0.2297,-0.2296,-0.2294,-0.2279,-0.2303,-0.2269,-0.2266,-0.2263,-0.2232,-0.2226,-0.2298,-0.2298,-0.2298,-0.2298,0,-0.2365,-0.2366,-0.2364,-0.2369,-0.2362,-0.2361,-0.2353,-0.2346,-0.234,-0.233,-0.2313,-0.2302,-0.2294,-0.2289,-0.2294,-0.2273,-0.2267,-0.227,-0.2273,-0.2258,-0.2227,-0.2221,-0.2297,-0.2297,-0.2297,-0.2298,0,0,-0.2362,-0.2372,-0.2371,-0.2382,-0.2377,-0.2372,-0.2373,-0.2365,-0.2359,-0.234,-0.2324,-0.2315,-0.2292,-0.2292,-0.2281,-0.2259,-0.222,-0.2259,-0.2257,-0.2227,-0.2157,-0.2122,-0.2112,-0.2216,-0.2215,-0.2214,-0.2139,0,-0.2379,-0.2405,-0.2397,-0.2415,-0.2427,-0.241,-0.2411,-0.2395,-0.2375,-0.2353,-0.2318,-0.2304,-0.2298,-0.2287,-0.2262,-0.2233,-0.2206,-0.224,-0.2178,-0.2176,-0.2145,-0.2104,-0.209,-0.2019,-0.2133,-0.2132,-0.2132,0,-0.2386,-0.2406,-0.2433,-0.2446,-0.2446,-0.2451,-0.2436,-0.2435,-0.2395,-0.2377,-0.234,-0.231,-0.227,-0.2269,-0.2201,-0.2223,-0.2194,-0.2168,-0.2164,-0.2135,-0.2129,-0.2055,-0.2004,-0.1921,-0.2122,-0.2123,-0.2124,0,-0.2397,-0.2425,-0.245,-0.2453,-0.2466,-0.2467,-0.2468,-0.2439,-0.2425,-0.2386,-0.2361,-0.2309,-0.2273,-0.2231,-0.2171,-0.2188,-0.2089,-0.2104,-0.2041,-0.2038,-0.2016,-0.2012,-0.1878,-0.2058,-0.2058,-0.2059,-0.2059,0,-0.2415,-0.2428,-0.2459,-0.2471,-0.2487,-0.2485,-0.2482,-0.2472,-0.2439,-0.241,-0.2372,-0.2328,-0.2263,-0.2194,-0.2157,-0.2066,-0.2074,-0.2029,-0.2012,-0.2009,-0.2006,-0.1927,-0.1849,-0.2056,-0.2056,-0.2057,-0.2057,0,-0.2409,-0.2436,-0.2461,-0.2488,-0.2494,-0.2501,-0.2495,-0.248,-0.2463,-0.2419,-0.2406,-0.2328,-0.2237,-0.2161,-0.2075,-0.2037,-0.1895,-0.1939,-0.1934,-0.1918,-0.179,-0.1713,-0.1543,-0.1498,-0.1856,-0.1855,-0.1853,0,-0.2406,-0.2423,-0.2466,-0.2477,-0.2488,-0.25,-0.2495,-0.2491,-0.247,-0.2413,-0.2382,-0.2287,-0.2217,-0.2066,-0.1982,-0.1888,-0.181,-0.1812,-0.1844,-0.1763,-0.1664,-0.1633,-0.1607,-0.1805,-0.1803,-0.1802,-0.1801,0,-0.2378,-0.2393,-0.2407,-0.2454,-0.2463,-0.2483,-0.2481,-0.2477,-0.2455,-0.2408,-0.2339,-0.2287,-0.2149,-0.2021,-0.1891,-0.1841,-0.1715,-0.1784,-0.17,-0.1601,-0.1557,-0.1514,-0.1872,-0.179,-0.1791,-0.1792,-0.1793,-0.1793,-0.2317,-0.2327,-0.2352,-0.2373,-0.2412,-0.2443,-0.2349,-0.2369,-0.2328,-0.2145,-0.2265,-0.2015,-0.1979,-0.1801,-0.1783,-0.1639,-0.1623,-0.1579,-0.1487,-0.1464,-0.142,-0.1747,-0.1649,-0.1649,-0.1649,-0.1649,-0.1649,0,-0.2194,-0.2217,-0.226,-0.2263,-0.2242,-0.2305,-0.228,-0.2116,-0.1976,-0.1891,-0.1796,-0.158,-0.1569,-0.1486,-0.1422,-0.1346,-0.1381,-0.1273,-0.1232,-0.122,-0.1515,-0.1516,-0.1384,-0.1384,-0.1384,-0.1384,-0.1384,-0.1384,-0.2114,-0.2088,-0.2117,-0.2053,-0.2045,-0.1854,-0.1771,-0.1616,-0.1459,-0.1137,-0.0845,-0.079,-0.0759,-0.0821,-0.0884,-0.0968,-0.0919,-0.0914,-0.086,-0.1069,-0.1092,-0.1114,-0.1101,-0.0884,-0.0883,-0.0639,-0.0636,-0.0634]},{"header":{"parameterUnit":"m.s-1","parameterCategory":2,"la1":30.2991,"la2":30.254,"lo1":-89.0895,"lo2":-89.0444,"dy":0.0017,"dx":0.0017,"nx":28,"ny":28,"refTime":"2024-11-25T03:00:00:Z","depth":"0","parameterNumber":3,"parameterNumberName":"V-component_of_CURRENTS"},"data":[0,0,0,0,0,0,0,0,0,0,0,0,0,0,0,0,0,0,0,0,0,0,0,0,0,0,0,0,0,0,0,0,0,0,0,0,0,0,0,0,0,0,0,0,0,0,0,0,0,0,0,0,0,0,0,0,0,0,-0.0335,-0.0336,0,-0.0362,-0.0362,-0.0362,-0.0361,-0.0361,-0.0361,-0.0361,-0.0366,-0.0366,-0.0366,0,0,0,0,0,0,0,0,0,0,0,0,0,-0.0264,-0.0265,-0.0335,-0.0336,-0.0336,-0.0362,-0.0362,-0.0362,-0.0361,-0.0361,-0.0361,-0.0361,-0.0366,-0.0366,-0.0366,0,0,0,0,0,0,0,0,0,0,0,0,0,-0.029,-0.0265,-0.0335,-0.0341,-0.0342,-0.0362,-0.0362,-0.0362,-0.0361,-0.0361,-0.0361,-0.0361,-0.0366,-0.0366,-0.0366,-0.0371,0,0,-0.0367,-0.0367,0,0,0,0,0,0,0,0,-0.0289,-0.0292,-0.034,-0.0341,-0.0342,-0.0361,-0.0339,-0.0365,-0.0361,-0.0351,-0.0361,-0.0361,-0.0364,-0.0365,-0.0366,-0.0372,-0.0372,-0.0367,-0.0368,-0.0368,-0.0368,0,0,0,0,0,0,0,-0.0287,-0.0291,-0.0343,-0.034,-0.0342,-0.0336,-0.034,-0.0344,-0.0355,-0.0352,-0.0352,-0.036,-0.0364,-0.0366,-0.0366,-0.0372,-0.0367,-0.0368,-0.0368,-0.0368,-0.0356,-0.0355,0,0,0,0,0,0,-0.0291,-0.029,-0.0342,-0.0344,-0.0318,-0.0338,-0.0342,-0.0352,-0.0356,-0.0357,-0.036,-0.036,-0.0365,-0.0366,-0.0366,-0.0364,-0.0368,-0.0368,-0.0368,-0.0356,-0.0355,-0.0355,0,0,0,0,0,0,-0.029,-0.0296,-0.0341,-0.0319,-0.0325,-0.034,-0.0352,-0.0353,-0.0355,-0.0363,-0.0363,-0.0362,-0.0365,-0.0366,-0.0367,-0.0364,-0.0368,-0.0368,-0.0357,-0.0356,-0.0355,-0.0364,0,0,0,0,0,0,-0.0287,-0.0295,-0.0302,-0.032,-0.0327,-0.0359,-0.0352,-0.0354,-0.0362,-0.0362,-0.0364,-0.0365,-0.0365,-0.0367,-0.0368,-0.0365,-0.0369,-0.0357,-0.0356,-0.0355,-0.0364,-0.0364,-0.0363,0,0,0,0,0,-0.0285,-0.031,-0.0302,-0.0308,-0.0336,-0.036,-0.0362,-0.037,-0.0362,-0.0369,-0.0363,-0.0364,-0.0361,-0.0367,-0.0368,-0.0365,-0.0358,-0.0357,-0.0355,-0.0365,-0.0364,-0.0363,0,0,0,0,0,0,-0.0288,-0.0313,-0.0304,-0.0335,-0.0344,-0.0361,-0.0375,-0.037,-0.0371,-0.037,-0.0365,-0.0366,-0.0363,-0.0361,-0.0368,-0.0356,-0.0357,-0.0355,-0.0363,-0.0362,-0.0362,-0.0366,-0.0369,0,0,0,0,0,-0.0289,-0.031,-0.0324,-0.0346,-0.0353,-0.0357,-0.0366,-0.0369,-0.0375,-0.0376,-0.0373,-0.0366,-0.0358,-0.0359,-0.0356,-0.0356,-0.0347,-0.0351,-0.035,-0.0349,-0.0352,-0.0344,-0.0343,-0.0351,-0.0351,-0.0351,0,0,-0.0295,-0.0312,-0.0323,-0.0347,-0.0355,-0.0366,-0.0362,-0.0382,-0.0383,-0.0376,-0.0375,-0.0367,-0.0357,-0.0354,-0.0352,-0.0354,-0.0337,-0.0348,-0.0348,-0.035,-0.0342,-0.0342,-0.0341,-0.035,-0.035,-0.035,0,0,-0.0327,-0.0333,-0.036,-0.0365,-0.0381,-0.0381,-0.0385,-0.0395,-0.0392,-0.0391,-0.0378,-0.0368,-0.0364,-0.0354,-0.0347,-0.034,-0.0333,-0.0335,-0.034,-0.0332,-0.0331,-0.0331,-0.03,-0.0297,-0.0336,-0.0336,-0.0336,0,-0.0336,-0.0365,-0.037,-0.039,-0.0395,-0.0386,-0.0402,-0.0397,-0.0402,-0.0395,-0.0392,-0.0368,-0.0362,-0.0348,-0.0343,-0.034,-0.0328,-0.0347,-0.0332,-0.0332,-0.0331,-0.03,-0.0296,-0.0337,-0.0337,-0.0337,-0.0337,0,-0.0385,-0.0396,-0.0414,-0.0428,-0.0428,-0.0447,-0.0435,-0.0429,-0.0416,-0.0407,-0.0391,-0.0377,-0.0362,-0.0354,-0.0348,-0.0336,-0.0325,-0.0333,-0.0338,-0.0331,-0.0298,-0.0294,-0.0337,-0.0337,-0.0337,-0.0337,0,0,-0.0451,-0.0449,-0.0456,-0.0457,-0.0449,-0.0463,-0.0446,-0.0439,-0.043,-0.0416,-0.0404,-0.0383,-0.037,-0.0361,-0.0348,-0.0339,-0.0318,-0.0337,-0.0336,-0.0312,-0.0285,-0.0331,-0.0331,-0.0329,-0.0329,-0.0329,-0.0256,0,-0.0492,-0.0534,-0.0509,-0.0525,-0.0545,-0.0503,-0.0488,-0.047,-0.0447,-0.043,-0.0402,-0.0389,-0.0374,-0.0367,-0.0354,-0.0332,-0.0311,-0.0336,-0.029,-0.0288,-0.0336,-0.033,-0.0378,-0.0324,-0.0253,-0.0252,-0.0251,0,-0.0565,-0.0576,-0.0607,-0.0577,-0.0579,-0.0574,-0.0545,-0.0528,-0.0484,-0.0461,-0.0431,-0.0406,-0.0378,-0.0374,-0.0325,-0.0343,-0.0312,-0.0292,-0.0289,-0.0331,-0.0329,-0.0322,-0.0319,-0.0234,-0.0245,-0.0246,-0.0246,0,-0.0652,-0.0648,-0.0673,-0.0669,-0.0633,-0.0624,-0.0598,-0.0552,-0.0537,-0.0487,-0.0473,-0.0424,-0.041,-0.0368,-0.0317,-0.0324,-0.0264,-0.0267,-0.027,-0.0271,-0.0303,-0.0309,-0.0223,-0.023,-0.0231,-0.0231,-0.0231,0,-0.0734,-0.075,-0.0717,-0.0736,-0.0749,-0.0691,-0.0689,-0.0649,-0.0593,-0.0581,-0.0505,-0.0492,-0.0414,-0.0367,-0.0317,-0.0283,-0.026,-0.027,-0.0264,-0.0305,-0.0312,-0.0234,-0.0162,-0.0228,-0.0229,-0.0229,-0.023,0,-0.0844,-0.082,-0.0847,-0.0812,-0.08,-0.0818,-0.0759,-0.0747,-0.068,-0.066,-0.0646,-0.0551,-0.0486,-0.0395,-0.0318,-0.0298,-0.0197,-0.0237,-0.0279,-0.0282,-0.0243,-0.017,-0.0057,0.0035,-0.024,-0.0241,-0.0241,0,-0.0908,-0.0938,-0.0928,-0.0938,-0.0926,-0.0921,-0.0907,-0.0821,-0.0795,-0.0707,-0.0702,-0.0619,-0.0562,-0.0448,-0.0395,-0.0306,-0.0189,-0.03,-0.0335,-0.0248,-0.0161,-0.0096,-0.002,-0.0356,-0.0358,-0.0359,-0.036,0,-0.1019,-0.1016,-0.1031,-0.1054,-0.1053,-0.1027,-0.0992,-0.0965,-0.0858,-0.0796,-0.071,-0.0656,-0.0602,-0.0534,-0.0441,-0.0398,-0.0231,-0.0329,-0.0227,-0.024,-0.0173,-0.008,-0.0368,-0.0372,-0.0371,-0.037,-0.0369,-0.0369,-0.1094,-0.1135,-0.1141,-0.1151,-0.1137,-0.1072,-0.0975,-0.0921,-0.0815,-0.0598,-0.0675,-0.047,-0.0581,-0.0471,-0.0459,-0.0392,-0.0302,-0.0347,-0.0259,-0.0196,-0.0134,-0.0448,-0.0464,-0.0464,-0.0463,-0.0463,-0.0462,0,-0.1172,-0.1189,-0.122,-0.1176,-0.11,-0.1081,-0.0965,-0.0794,-0.059,-0.0467,-0.0334,-0.0216,-0.03,-0.0325,-0.0364,-0.031,-0.0256,-0.0233,-0.0133,-0.005,-0.0335,-0.0371,-0.0384,-0.0384,-0.0384,-0.0384,-0.0384,-0.0384,-0.1207,-0.125,-0.1244,-0.1118,-0.1037,-0.0806,-0.0668,-0.0454,-0.0282,0.0076,0.0312,0.0381,0.0291,-0.0042,-0.0094,-0.0109,0.0088,0.0023,0.0195,-0.0008,-0.0012,-0.0015,-0.0034,0.0025,0.0025,0.0444,0.0447,0.045]}],[{"header":{"parameterUnit":"m.s-1","parameterCategory":2,"la1":30.2991,"la2":30.254,"lo1":-89.0895,"lo2":-89.0444,"dy":0.0017,"dx":0.0017,"nx":28,"ny":28,"refTime":"2024-11-25T03:00:00:Z","depth":"2","parameterNumber":2,"parameterNumberName":"U-component_of_CURRENTS"},"data":[0,0,0,0,0,0,0,0,0,0,0,0,0,0,0,0,0,0,0,0,0,0,0,0,0,0,0,0,0,0,0,0,0,0,0,0,0,0,0,0,0,0,0,0,0,0,0,0,0,0,0,0,0,0,0,0,0,0,-0.2028,-0.2028,0,-0.2074,-0.2074,-0.2075,-0.2068,-0.2067,-0.2066,-0.2066,-0.2072,-0.2073,-0.2074,0,0,0,0,0,0,0,0,0,0,0,0,0,-0.1957,-0.1958,-0.2028,-0.2028,-0.2029,-0.2074,-0.2074,-0.2075,-0.2068,-0.2067,-0.2066,-0.2065,-0.2072,-0.2073,-0.2074,0,0,0,0,0,0,0,0,0,0,0,0,0,-0.1993,-0.1959,-0.2028,-0.2031,-0.2032,-0.2074,-0.2074,-0.2075,-0.2068,-0.2067,-0.2066,-0.2065,-0.2071,-0.2073,-0.2074,-0.2103,0,0,-0.2078,-0.2078,0,0,0,0,0,0,0,0,-0.1991,-0.1996,-0.203,-0.2031,-0.2032,-0.2065,-0.2052,-0.2083,-0.2068,-0.2054,-0.2066,-0.2065,-0.2067,-0.2069,-0.2079,-0.2103,-0.2104,-0.2078,-0.2079,-0.2079,-0.2079,0,0,0,0,0,0,0,-0.1989,-0.1994,-0.2045,-0.2031,-0.2032,-0.2039,-0.2043,-0.2058,-0.2065,-0.2055,-0.2055,-0.2061,-0.2067,-0.2078,-0.2079,-0.2104,-0.2078,-0.2079,-0.208,-0.208,-0.2152,-0.2153,0,0,0,0,0,0,-0.1985,-0.1992,-0.2044,-0.2047,-0.201,-0.2041,-0.2045,-0.2055,-0.2065,-0.2066,-0.2062,-0.2061,-0.2077,-0.2078,-0.2079,-0.2103,-0.2079,-0.208,-0.2081,-0.2151,-0.2152,-0.2154,0,0,0,0,0,0,-0.1983,-0.1989,-0.2042,-0.202,-0.2028,-0.2043,-0.2054,-0.2056,-0.2075,-0.2071,-0.2071,-0.208,-0.2076,-0.2078,-0.2106,-0.2104,-0.2081,-0.2082,-0.215,-0.2151,-0.2153,-0.2158,0,0,0,0,0,0,-0.1981,-0.1988,-0.2001,-0.202,-0.2029,-0.2073,-0.2055,-0.2058,-0.2081,-0.2079,-0.2087,-0.2085,-0.2075,-0.2104,-0.2107,-0.2105,-0.2083,-0.2148,-0.215,-0.2152,-0.2157,-0.216,-0.2163,0,0,0,0,0,-0.1978,-0.1999,-0.2001,-0.2008,-0.2043,-0.2074,-0.208,-0.2086,-0.2083,-0.2098,-0.2105,-0.2086,-0.2119,-0.2107,-0.211,-0.2108,-0.2147,-0.215,-0.2152,-0.2155,-0.2159,-0.2163,0,0,0,0,0,0,-0.1961,-0.2001,-0.2003,-0.2031,-0.2054,-0.2074,-0.2094,-0.2098,-0.2118,-0.2119,-0.211,-0.211,-0.2129,-0.2131,-0.2118,-0.2138,-0.2127,-0.213,-0.2128,-0.2132,-0.2135,-0.2128,-0.2084,0,0,0,0,0,-0.1967,-0.2005,-0.2026,-0.2051,-0.2064,-0.2083,-0.2099,-0.2104,-0.2122,-0.213,-0.2133,-0.2139,-0.2144,-0.2148,-0.2157,-0.2178,-0.212,-0.2178,-0.2181,-0.2184,-0.2182,-0.2122,-0.2118,-0.2162,-0.2162,-0.2162,0,0,-0.1966,-0.1995,-0.2014,-0.2052,-0.2072,-0.2103,-0.209,-0.2121,-0.2138,-0.2128,-0.2157,-0.2155,-0.2155,-0.2169,-0.2177,-0.2169,-0.213,-0.2187,-0.2189,-0.2186,-0.2124,-0.2119,-0.2115,-0.2164,-0.2164,-0.2163,0,0,-0.2,-0.2011,-0.206,-0.2084,-0.2122,-0.2127,-0.214,-0.2166,-0.2167,-0.2198,-0.2185,-0.2186,-0.221,-0.2195,-0.2193,-0.2225,-0.2151,-0.223,-0.2236,-0.2177,-0.2171,-0.2166,-0.203,-0.2013,-0.2228,-0.2228,-0.2228,0,-0.1997,-0.2058,-0.2075,-0.2125,-0.2141,-0.2141,-0.2178,-0.2186,-0.2215,-0.2207,-0.2209,-0.221,-0.2216,-0.2204,-0.2218,-0.2227,-0.2159,-0.2216,-0.2176,-0.2171,-0.2165,-0.2027,-0.2008,-0.2229,-0.2229,-0.2229,-0.2229,0,-0.2071,-0.2114,-0.2142,-0.2201,-0.2216,-0.225,-0.2253,-0.2263,-0.2258,-0.2251,-0.2241,-0.2239,-0.2231,-0.2233,-0.2241,-0.2209,-0.2157,-0.2184,-0.2157,-0.216,-0.2015,-0.1994,-0.223,-0.223,-0.2229,-0.2229,0,0,-0.2078,-0.2176,-0.2188,-0.22,-0.2257,-0.2254,-0.2289,-0.229,-0.226,-0.2283,-0.2242,-0.2269,-0.2244,-0.2242,-0.2232,-0.2192,-0.2087,-0.218,-0.2177,-0.2025,-0.1889,-0.1811,-0.178,-0.2107,-0.2105,-0.2104,-0.1779,0,-0.213,-0.2217,-0.226,-0.2299,-0.2321,-0.2325,-0.2327,-0.2319,-0.2298,-0.2253,-0.2237,-0.2206,-0.2252,-0.2226,-0.2202,-0.2129,-0.2045,-0.2168,-0.1927,-0.1918,-0.1834,-0.176,-0.1679,-0.1382,-0.1759,-0.1756,-0.1754,0,-0.2195,-0.2232,-0.2302,-0.2298,-0.2303,-0.2322,-0.2276,-0.2281,-0.2236,-0.2214,-0.2198,-0.2169,-0.2132,-0.2157,-0.2021,-0.2097,-0.1995,-0.1924,-0.1911,-0.1828,-0.1805,-0.1455,-0.1331,-0.1719,-0.1722,-0.1725,-0.1727,0,-0.2167,-0.2244,-0.2285,-0.2301,-0.2315,-0.2317,-0.2307,-0.2272,-0.2216,-0.2187,-0.2119,-0.2099,-0.2026,-0.197,-0.1862,-0.1934,-0.1651,-0.1727,-0.1532,-0.1521,-0.14,-0.1384,-0.1583,-0.1584,-0.1584,-0.1585,-0.1586,0,-0.2198,-0.2208,-0.227,-0.2283,-0.224,-0.2278,-0.221,-0.2201,-0.2145,-0.2042,-0.2089,-0.197,-0.1979,-0.1833,-0.1784,-0.1569,-0.1583,-0.1493,-0.1438,-0.1395,-0.1383,-0.1667,-0.1681,-0.1573,-0.1576,-0.1578,-0.158,0,-0.2138,-0.2224,-0.2215,-0.2238,-0.2235,-0.2187,-0.2127,-0.2057,-0.2048,-0.1914,-0.19,-0.1823,-0.1675,-0.1609,-0.1444,-0.1407,-0.1256,-0.1158,-0.1071,-0.1016,-0.1175,-0.1194,-0.0927,-0.0921,-0.0917,-0.0913,-0.091,0,-0.2109,-0.2124,-0.2132,-0.21,-0.2109,-0.2058,-0.2006,-0.2004,-0.193,-0.1792,-0.1703,-0.1547,-0.14,-0.1127,-0.1053,-0.0892,-0.1011,-0.0712,-0.0878,-0.1136,-0.111,-0.1136,-0.116,-0.0672,-0.0667,-0.0663,-0.066,0,-0.1971,-0.1994,-0.1969,-0.1933,-0.1898,-0.1821,-0.1769,-0.1708,-0.1679,-0.1585,-0.1407,-0.1287,-0.1039,-0.0856,-0.0675,-0.0596,-0.0773,-0.0627,-0.0865,-0.0892,-0.0881,-0.0862,-0.0895,-0.0624,-0.0628,-0.063,-0.0632,-0.0634,-0.1803,-0.1749,-0.1745,-0.1679,-0.1651,-0.158,-0.1481,-0.1459,-0.1346,-0.1189,-0.1151,-0.0975,-0.0834,-0.0567,-0.0434,-0.0371,-0.0452,-0.0455,-0.0472,-0.0493,-0.0563,-0.055,-0.0236,-0.0238,-0.0239,-0.024,-0.0241,0,-0.1542,-0.153,-0.1476,-0.141,-0.1322,-0.1376,-0.1289,-0.1195,-0.1069,-0.0986,-0.0849,-0.0648,-0.0488,-0.0406,-0.024,-0.0149,-0.0209,-0.0151,-0.0257,-0.0288,-0.0316,-0.0388,-0.0008,-0.0008,-0.0008,-0.0008,0,0,-0.1395,-0.1278,-0.1274,-0.109,-0.1061,-0.0922,-0.0857,-0.0788,-0.0729,-0.0569,-0.0511,-0.0494,-0.0426,-0.0283,-0.0151,-0.0071,-0.0202,-0.0051,-0.0226,-0.0384,-0.0415,-0.0457,-0.0594,0,0,0,0,0]},{"header":{"parameterUnit":"m.s-1","parameterCategory":2,"la1":30.2991,"la2":30.254,"lo1":-89.0895,"lo2":-89.0444,"dy":0.0017,"dx":0.0017,"nx":28,"ny":28,"refTime":"2024-11-25T03:00:00:Z","depth":"2","parameterNumber":3,"parameterNumberName":"V-component_of_CURRENTS"},"data":[0,0,0,0,0,0,0,0,0,0,0,0,0,0,0,0,0,0,0,0,0,0,0,0,0,0,0,0,0,0,0,0,0,0,0,0,0,0,0,0,0,0,0,0,0,0,0,0,0,0,0,0,0,0,0,0,0,0,0.0166,0.0166,0,0.0227,0.0228,0.0228,0.0247,0.0247,0.0246,0.0246,0.0256,0.0257,0.0258,0,0,0,0,0,0,0,0,0,0,0,0,0,0.0113,0.0113,0.0165,0.0166,0.0167,0.0227,0.0228,0.0228,0.0247,0.0247,0.0246,0.0246,0.0256,0.0257,0.0258,0,0,0,0,0,0,0,0,0,0,0,0,0,0.0152,0.0114,0.0165,0.0183,0.0185,0.0226,0.0228,0.0229,0.0247,0.0247,0.0246,0.0246,0.0256,0.0257,0.0258,0.0275,0,0,0.0261,0.0261,0,0,0,0,0,0,0,0,0.0149,0.0154,0.018,0.0182,0.0184,0.0228,0.0213,0.0241,0.0247,0.0224,0.0246,0.0245,0.0242,0.0244,0.0259,0.0275,0.0275,0.0261,0.0261,0.0262,0.0262,0,0,0,0,0,0,0,0.0146,0.0151,0.0191,0.018,0.0183,0.0204,0.0209,0.0219,0.0235,0.0226,0.0228,0.0234,0.0243,0.0258,0.0259,0.0276,0.0261,0.0261,0.0262,0.0262,0.0223,0.0222,0,0,0,0,0,0,0.0136,0.0149,0.0189,0.0192,0.0164,0.0205,0.021,0.0215,0.0236,0.0239,0.0234,0.0234,0.0257,0.0258,0.0259,0.0209,0.0262,0.0263,0.0263,0.0225,0.0223,0.0221,0,0,0,0,0,0,0.0134,0.0139,0.0186,0.0171,0.0179,0.0206,0.0212,0.0217,0.0209,0.0243,0.0244,0.0218,0.0256,0.0258,0.0225,0.0212,0.0263,0.0264,0.0227,0.0224,0.0222,0.0153,0,0,0,0,0,0,0.0133,0.0138,0.0137,0.017,0.0179,0.019,0.0212,0.0218,0.0214,0.0215,0.023,0.0232,0.0256,0.0223,0.0226,0.0214,0.0265,0.0229,0.0226,0.0223,0.0157,0.0149,0.0141,0,0,0,0,0,0.013,0.0126,0.0136,0.0141,0.0177,0.0189,0.0195,0.0214,0.0214,0.0205,0.0197,0.023,0.0207,0.0222,0.0226,0.0214,0.023,0.0227,0.0223,0.0161,0.015,0.0141,0,0,0,0,0,0,0.0101,0.0128,0.014,0.0144,0.0157,0.0191,0.019,0.0198,0.0189,0.0175,0.0204,0.0205,0.0175,0.0195,0.0211,0.0192,0.0227,0.0224,0.0179,0.0169,0.0161,0.0175,0.0265,0,0,0,0,0,0.0095,0.01,0.0125,0.0127,0.0129,0.0154,0.016,0.0164,0.0165,0.0161,0.0167,0.0168,0.0169,0.0166,0.0169,0.0155,0.0213,0.015,0.0142,0.0135,0.0147,0.0204,0.0204,0.021,0.021,0.021,0,0,0.0087,0.0102,0.0105,0.0122,0.0135,0.0119,0.0155,0.0146,0.013,0.0162,0.0128,0.0135,0.0156,0.0137,0.0127,0.0149,0.0163,0.013,0.0125,0.0141,0.0201,0.0201,0.0201,0.0207,0.0208,0.0208,0,0,0.0057,0.008,0.0064,0.0065,0.0068,0.0084,0.0071,0.0079,0.0081,0.0053,0.0069,0.0061,0.006,0.0077,0.0087,0.0035,0.0115,0.0032,0.001,0.0064,0.0065,0.0066,0.0146,0.0156,0.0033,0.0033,0.0033,0,0.0041,0.003,0.006,0.0034,0.0036,0.0057,0.0031,0.0033,0.0024,0.0035,0.0026,0.0039,0.004,0.005,0.0021,0.0021,0.0074,0.0046,0.0056,0.0059,0.0062,0.0144,0.0155,0.0029,0.003,0.003,0.003,0,-0.0011,-0.0021,-0.0034,-0.0052,-0.0047,-0.0068,-0.0058,-0.0065,-0.0061,-0.0046,-0.0044,-0.0037,-0.0015,-0.0026,-0.0023,-0.0006,0.0033,0.0038,0.0088,0.0058,0.0145,0.0158,0.0024,0.0025,0.0026,0.0027,0,0,-0.0056,-0.0064,-0.0076,-0.007,-0.0095,-0.0081,-0.0114,-0.01,-0.0076,-0.0102,-0.0065,-0.0094,-0.0068,-0.0057,-0.0044,-0.0013,0.0035,0.0011,0.0015,0.0103,0.0181,0.0114,0.0123,0.0044,0.0045,0.0047,0.0238,0,-0.011,-0.0148,-0.0145,-0.017,-0.018,-0.0158,-0.0158,-0.0145,-0.0123,-0.0088,-0.0075,-0.0052,-0.0084,-0.0064,-0.0046,0.0015,0.0065,-0.0015,0.0187,0.0194,0.0148,0.0134,0.0159,0.0321,0.0251,0.0253,0.0255,0,-0.0187,-0.0182,-0.0221,-0.0174,-0.0173,-0.0185,-0.013,-0.0127,-0.0085,-0.0063,-0.0049,-0.0027,-0.001,-0.0019,0.0076,0.0027,0.0097,0.015,0.0159,0.0133,0.015,0.0337,0.0349,0.0278,0.0276,0.0274,0.0273,0,-0.0225,-0.0233,-0.0244,-0.0248,-0.0212,-0.02,-0.0169,-0.0126,-0.0079,-0.0045,-0.0,0.0018,0.0057,0.0111,0.0165,0.0136,0.0304,0.0289,0.0313,0.0312,0.0391,0.0391,0.0392,0.0392,0.0392,0.0391,0.0391,0,-0.0294,-0.0299,-0.0253,-0.0264,-0.0219,-0.0195,-0.0135,-0.0108,-0.0038,0.0047,0.0014,0.0097,0.0091,0.017,0.0211,0.0291,0.0345,0.0318,0.0348,0.0363,0.0359,0.0362,0.0356,0.0398,0.0397,0.0395,0.0394,0,-0.0364,-0.0353,-0.0337,-0.0279,-0.025,-0.0218,-0.011,-0.004,-0.0002,0.0108,0.0118,0.0172,0.0246,0.0262,0.038,0.0363,0.0443,0.0476,0.049,0.0513,0.0414,0.0402,0.0519,0.0518,0.0517,0.0516,0.0516,0,-0.0407,-0.0416,-0.0343,-0.0301,-0.028,-0.0206,-0.0129,-0.0048,0.0039,0.0186,0.0253,0.0323,0.0396,0.0487,0.0473,0.0521,0.0507,0.0557,0.0469,0.0406,0.0425,0.0414,0.0403,0.0583,0.0583,0.0583,0.0583,0,-0.0464,-0.0444,-0.0417,-0.0334,-0.0258,-0.015,-0.0039,0.0038,0.0172,0.0259,0.0414,0.0478,0.0552,0.0574,0.0557,0.0581,0.0517,0.0552,0.0541,0.0493,0.0466,0.0483,0.0472,0.0583,0.0583,0.0583,0.0583,0.0583,-0.0492,-0.0478,-0.0432,-0.0355,-0.0251,-0.012,-0.0045,0.0076,0.0201,0.0318,0.0482,0.0573,0.0572,0.053,0.0553,0.0546,0.0547,0.0531,0.0533,0.0534,0.0454,0.042,0.0518,0.0518,0.0518,0.0517,0.0517,0,-0.0517,-0.0492,-0.0431,-0.0342,-0.0244,-0.0167,0.0009,0.0052,0.0159,0.0328,0.0432,0.047,0.0534,0.0553,0.0572,0.0546,0.0551,0.0514,0.0552,0.0553,0.0554,0.0473,0.0545,0.0544,0.0544,0.0543,0,0,-0.0524,-0.0504,-0.0478,-0.0367,-0.0281,-0.0145,-0.005,-0.0016,0.0095,0.0184,0.0307,0.041,0.0537,0.0499,0.0507,0.0557,0.0536,0.0533,0.052,0.0567,0.0567,0.0584,0.0463,0,0,0,0,0]}],[{"header":{"parameterUnit":"m.s-1","parameterCategory":2,"la1":30.2991,"la2":30.254,"lo1":-89.0895,"lo2":-89.0444,"dy":0.0017,"dx":0.0017,"nx":28,"ny":28,"refTime":"2024-11-25T03:00:00:Z","depth":"4","parameterNumber":2,"parameterNumberName":"U-component_of_CURRENTS"},"data":[0,0,0,0,0,0,0,0,0,0,0,0,0,0,0,0,0,0,0,0,0,0,0,0,0,0,0,0,0,0,0,0,0,0,0,0,0,0,0,0,0,0,0,0,0,0,0,0,0,0,0,0,0,0,0,0,0,0,-0.0219,-0.0218,0,-0.0227,-0.0228,-0.0228,-0.0288,-0.0288,-0.0289,-0.0289,-0.0449,-0.0453,-0.0456,0,0,0,0,0,0,0,0,0,0,0,0,0,-0.0237,-0.0237,-0.0219,-0.0218,-0.0217,-0.0227,-0.0228,-0.0229,-0.0288,-0.0288,-0.0289,-0.0289,-0.0448,-0.0452,-0.0457,0,0,0,0,0,0,0,0,0,0,0,0,0,-0.0245,-0.0237,-0.0219,-0.024,-0.0241,-0.0226,-0.0228,-0.0229,-0.0287,-0.0288,-0.0289,-0.029,-0.0446,-0.0452,-0.0457,-0.0476,0,0,-0.0475,-0.0477,0,0,0,0,0,0,0,0,-0.0245,-0.0246,-0.0238,-0.0239,-0.024,-0.0248,-0.0292,-0.0316,-0.0287,-0.0281,-0.0289,-0.029,-0.0389,-0.0399,-0.0411,-0.0484,-0.0491,-0.0475,-0.0478,-0.0481,-0.0482,0,0,0,0,0,0,0,-0.0244,-0.0245,-0.0232,-0.0237,-0.0238,-0.0242,-0.0246,-0.0297,-0.0341,-0.0281,-0.0283,-0.0268,-0.0392,-0.0405,-0.0416,-0.0493,-0.0475,-0.048,-0.0483,-0.0486,-0.0719,-0.0722,0,0,0,0,0,0,-0.0223,-0.0245,-0.0232,-0.0231,-0.0233,-0.0241,-0.0245,-0.0253,-0.0337,-0.0346,-0.0267,-0.027,-0.0395,-0.0409,-0.0422,-0.0589,-0.0481,-0.0486,-0.0489,-0.0716,-0.072,-0.0723,0,0,0,0,0,0,-0.0224,-0.0222,-0.0231,-0.0229,-0.0229,-0.0239,-0.0248,-0.0252,-0.0315,-0.0322,-0.0337,-0.0328,-0.0397,-0.0414,-0.0512,-0.0591,-0.0489,-0.0494,-0.0713,-0.0717,-0.0721,-0.0836,0,0,0,0,0,0,-0.0225,-0.0224,-0.0228,-0.0228,-0.0228,-0.0245,-0.0246,-0.0252,-0.0295,-0.0302,-0.0379,-0.0391,-0.0398,-0.0503,-0.0517,-0.0597,-0.0498,-0.0709,-0.0715,-0.072,-0.0828,-0.0843,-0.0856,0,0,0,0,0,-0.0226,-0.023,-0.0229,-0.0227,-0.0233,-0.0245,-0.0249,-0.0263,-0.0298,-0.0326,-0.039,-0.0392,-0.0547,-0.051,-0.0526,-0.0609,-0.0707,-0.0713,-0.072,-0.0822,-0.084,-0.0856,0,0,0,0,0,0,-0.0238,-0.0235,-0.0235,-0.0237,-0.0247,-0.0252,-0.0267,-0.0296,-0.0368,-0.0378,-0.0429,-0.0446,-0.0547,-0.0566,-0.0525,-0.0689,-0.0627,-0.0637,-0.07,-0.0717,-0.0731,-0.0668,-0.0503,0,0,0,0,0,-0.0238,-0.0243,-0.0244,-0.0244,-0.0257,-0.0279,-0.0291,-0.0295,-0.0342,-0.0376,-0.0443,-0.051,-0.0577,-0.064,-0.067,-0.0782,-0.0722,-0.0844,-0.0858,-0.087,-0.0829,-0.0907,-0.0924,-0.0744,-0.0744,-0.0744,0,0,-0.0227,-0.0233,-0.0228,-0.0246,-0.0261,-0.0281,-0.0294,-0.0308,-0.0348,-0.0382,-0.0495,-0.0547,-0.0608,-0.0709,-0.0762,-0.0751,-0.0866,-0.0878,-0.0888,-0.0839,-0.0915,-0.0933,-0.0948,-0.0748,-0.0747,-0.0747,0,0,-0.0214,-0.0237,-0.0239,-0.0268,-0.0278,-0.0287,-0.0309,-0.0348,-0.0401,-0.0492,-0.0529,-0.0608,-0.0751,-0.0784,-0.0829,-0.0938,-0.0915,-0.1006,-0.1064,-0.1143,-0.1158,-0.117,-0.1007,-0.1005,-0.1045,-0.1046,-0.1046,0,-0.0206,-0.0214,-0.0241,-0.0271,-0.0287,-0.0308,-0.0327,-0.0381,-0.0451,-0.0498,-0.0537,-0.0713,-0.0761,-0.0878,-0.0933,-0.0964,-0.0958,-0.1002,-0.116,-0.1172,-0.1183,-0.1014,-0.101,-0.1052,-0.1051,-0.105,-0.105,0,-0.02,-0.0222,-0.0238,-0.028,-0.031,-0.0322,-0.0381,-0.045,-0.0524,-0.0559,-0.0692,-0.0769,-0.0884,-0.0935,-0.0985,-0.1116,-0.1057,-0.1146,-0.1114,-0.1208,-0.1022,-0.1015,-0.1061,-0.1059,-0.1057,-0.1055,0,0,-0.015,-0.0213,-0.0221,-0.0253,-0.0314,-0.0336,-0.0426,-0.0489,-0.0542,-0.0657,-0.075,-0.0892,-0.0951,-0.1001,-0.1088,-0.1165,-0.1207,-0.1234,-0.1235,-0.1053,-0.1255,-0.1171,-0.1152,-0.1408,-0.141,-0.1412,-0.1052,0,-0.0138,-0.0172,-0.0214,-0.0264,-0.0296,-0.0371,-0.0441,-0.0508,-0.0591,-0.0688,-0.0793,-0.0903,-0.0984,-0.1079,-0.1178,-0.1232,-0.1218,-0.1284,-0.12,-0.119,-0.11,-0.1156,-0.142,-0.1046,-0.1044,-0.1043,-0.1042,0,-0.0129,-0.0152,-0.0185,-0.0264,-0.0285,-0.0329,-0.0438,-0.0506,-0.0627,-0.0712,-0.0852,-0.0932,-0.1072,-0.1136,-0.1218,-0.1304,-0.1267,-0.1254,-0.1244,-0.112,-0.1102,-0.0961,-0.1029,-0.103,-0.1031,-0.1032,-0.1033,0,-0.0089,-0.0147,-0.0167,-0.0201,-0.0283,-0.0345,-0.0407,-0.0511,-0.0578,-0.0751,-0.08,-0.0972,-0.1053,-0.115,-0.1151,-0.1254,-0.1136,-0.1265,-0.1061,-0.1043,-0.1168,-0.116,-0.1224,-0.1224,-0.1225,-0.1226,-0.1227,0,-0.0083,-0.0113,-0.0158,-0.019,-0.0234,-0.0318,-0.0393,-0.0496,-0.0603,-0.0634,-0.0833,-0.0865,-0.1101,-0.1077,-0.1105,-0.1026,-0.1099,-0.1013,-0.0994,-0.1204,-0.1206,-0.1153,-0.115,-0.1212,-0.1215,-0.1218,-0.1221,0,-0.008,-0.0094,-0.0134,-0.02,-0.023,-0.0285,-0.0406,-0.0442,-0.0562,-0.0619,-0.0691,-0.081,-0.0825,-0.0857,-0.0886,-0.0906,-0.0858,-0.0757,-0.0764,-0.0756,-0.0687,-0.0694,-0.0558,-0.0553,-0.0549,-0.0546,-0.0543,0,-0.0088,-0.0102,-0.0144,-0.0158,-0.0207,-0.029,-0.0323,-0.045,-0.0476,-0.0538,-0.0533,-0.0561,-0.0624,-0.0515,-0.0617,-0.0554,-0.0573,-0.0477,-0.0793,-0.0648,-0.0642,-0.0656,-0.0668,-0.0536,-0.0535,-0.0534,-0.0533,0,-0.0118,-0.0121,-0.0135,-0.0152,-0.019,-0.0222,-0.0281,-0.03,-0.0384,-0.0452,-0.0421,-0.0448,-0.0372,-0.0447,-0.0347,-0.0336,-0.0582,-0.0437,-0.045,-0.0747,-0.062,-0.0621,-0.0638,-0.0519,-0.0521,-0.0522,-0.0523,0,-0.0129,-0.0132,-0.0127,-0.0149,-0.0157,-0.0149,-0.0204,-0.0211,-0.0256,-0.032,-0.0262,-0.0282,-0.0315,-0.0307,-0.023,-0.0228,-0.0311,-0.0378,-0.0397,-0.0413,-0.0565,-0.0395,-0.0177,0,0,0,0,0,-0.0139,-0.0127,-0.0132,-0.0123,-0.0113,-0.0118,-0.0145,-0.0184,-0.0223,-0.0188,-0.025,-0.019,-0.0186,-0.0189,-0.0172,-0.0182,-0.0299,-0.0164,-0.0383,-0.044,-0.0456,-0.0667,0,0,0,0,0,0,-0.0141,-0.0134,-0.012,-0.0082,-0.0061,-0.0048,-0.0059,-0.0087,-0.0088,-0.0134,-0.013,-0.017,-0.016,-0.0175,-0.0159,-0.016,-0.0298,-0.0173,-0.0172,-0.0431,-0.0445,-0.0459,-0.0681,0,0,0,0,0]},{"header":{"parameterUnit":"m.s-1","parameterCategory":2,"la1":30.2991,"la2":30.254,"lo1":-89.0895,"lo2":-89.0444,"dy":0.0017,"dx":0.0017,"nx":28,"ny":28,"refTime":"2024-11-25T03:00:00:Z","depth":"4","parameterNumber":3,"parameterNumberName":"V-component_of_CURRENTS"},"data":[0,0,0,0,0,0,0,0,0,0,0,0,0,0,0,0,0,0,0,0,0,0,0,0,0,0,0,0,0,0,0,0,0,0,0,0,0,0,0,0,0,0,0,0,0,0,0,0,0,0,0,0,0,0,0,0,0,0,-0.0668,-0.0667,0,-0.069,-0.0691,-0.0691,-0.0738,-0.0738,-0.0738,-0.0739,-0.0752,-0.0752,-0.0752,0,0,0,0,0,0,0,0,0,0,0,0,0,-0.061,-0.0611,-0.0668,-0.0667,-0.0667,-0.069,-0.0691,-0.0692,-0.0738,-0.0738,-0.0738,-0.0739,-0.0752,-0.0752,-0.0752,0,0,0,0,0,0,0,0,0,0,0,0,0,-0.064,-0.0612,-0.0668,-0.0688,-0.069,-0.069,-0.0691,-0.0692,-0.0738,-0.0738,-0.0739,-0.0739,-0.0752,-0.0752,-0.0752,-0.0742,0,0,-0.0752,-0.0752,0,0,0,0,0,0,0,0,-0.0638,-0.0643,-0.0685,-0.0687,-0.0688,-0.0706,-0.0675,-0.0706,-0.0737,-0.0726,-0.0739,-0.0739,-0.0731,-0.0733,-0.0745,-0.0742,-0.0743,-0.0752,-0.0752,-0.0752,-0.0752,0,0,0,0,0,0,0,-0.0636,-0.0642,-0.0683,-0.0685,-0.0687,-0.0676,-0.0683,-0.0681,-0.073,-0.0727,-0.0729,-0.0721,-0.0733,-0.0745,-0.0746,-0.0743,-0.0752,-0.0752,-0.0752,-0.0752,-0.0775,-0.0776,0,0,0,0,0,0,-0.0623,-0.064,-0.0682,-0.0683,-0.0657,-0.0677,-0.0684,-0.0705,-0.073,-0.0733,-0.0721,-0.0723,-0.0745,-0.0745,-0.0746,-0.0792,-0.0752,-0.0752,-0.0752,-0.0775,-0.0775,-0.0776,0,0,0,0,0,0,-0.0622,-0.0628,-0.0681,-0.0655,-0.066,-0.0677,-0.07,-0.0705,-0.0769,-0.0724,-0.0728,-0.0785,-0.0745,-0.0746,-0.0772,-0.0791,-0.0752,-0.0752,-0.0774,-0.0775,-0.0776,-0.0847,0,0,0,0,0,0,-0.0621,-0.0628,-0.0649,-0.0655,-0.0661,-0.0709,-0.0699,-0.0705,-0.0757,-0.0762,-0.078,-0.0778,-0.0746,-0.0772,-0.0772,-0.079,-0.0752,-0.0773,-0.0774,-0.0775,-0.0844,-0.085,-0.0856,0,0,0,0,0,-0.062,-0.0649,-0.065,-0.0655,-0.0687,-0.071,-0.0715,-0.073,-0.076,-0.0793,-0.0798,-0.0781,-0.0778,-0.0774,-0.0773,-0.0791,-0.0773,-0.0774,-0.0775,-0.0841,-0.0849,-0.0856,0,0,0,0,0,0,-0.0632,-0.0655,-0.0658,-0.0692,-0.0708,-0.0716,-0.0741,-0.0768,-0.0803,-0.0806,-0.0798,-0.0796,-0.0819,-0.0801,-0.0796,-0.0798,-0.0769,-0.0771,-0.082,-0.0827,-0.0832,-0.0792,-0.0752,0,0,0,0,0,-0.0641,-0.0676,-0.0685,-0.0714,-0.0728,-0.0751,-0.0769,-0.0775,-0.0795,-0.0816,-0.0834,-0.083,-0.0816,-0.0823,-0.0806,-0.0823,-0.0778,-0.083,-0.0836,-0.0842,-0.0807,-0.0776,-0.0775,-0.078,-0.078,-0.078,0,0,-0.0646,-0.0666,-0.0683,-0.0719,-0.0737,-0.0746,-0.0768,-0.0798,-0.0814,-0.0806,-0.0863,-0.0859,-0.0825,-0.0829,-0.0838,-0.0824,-0.0819,-0.0843,-0.0848,-0.0809,-0.0777,-0.0776,-0.0775,-0.0781,-0.0781,-0.0781,0,0,-0.0663,-0.0705,-0.073,-0.0751,-0.0771,-0.0771,-0.0798,-0.0833,-0.0868,-0.09,-0.0889,-0.0904,-0.0913,-0.0883,-0.0866,-0.0899,-0.0851,-0.0905,-0.0905,-0.0878,-0.0876,-0.0874,-0.0829,-0.0823,-0.0909,-0.091,-0.091,0,-0.0661,-0.07,-0.0739,-0.0763,-0.0773,-0.0794,-0.0808,-0.0836,-0.0878,-0.0897,-0.0922,-0.0928,-0.0924,-0.0899,-0.0901,-0.0912,-0.0876,-0.0887,-0.0884,-0.0882,-0.0879,-0.0832,-0.0824,-0.0913,-0.0913,-0.0912,-0.0912,0,-0.0685,-0.0718,-0.0742,-0.0771,-0.0792,-0.081,-0.0831,-0.0879,-0.0921,-0.0925,-0.0955,-0.0954,-0.0949,-0.0961,-0.0936,-0.0915,-0.0891,-0.0898,-0.0867,-0.0882,-0.0833,-0.0823,-0.0918,-0.0917,-0.0916,-0.0915,0,0,-0.0662,-0.0738,-0.0746,-0.0762,-0.0797,-0.0811,-0.0851,-0.0872,-0.0899,-0.0939,-0.0972,-0.0958,-0.0965,-0.0943,-0.094,-0.0914,-0.0883,-0.0893,-0.089,-0.0846,-0.08,-0.0742,-0.0726,-0.0892,-0.0891,-0.089,-0.0779,0,-0.066,-0.0694,-0.0741,-0.0766,-0.0777,-0.0825,-0.0853,-0.0874,-0.0913,-0.0952,-0.0952,-0.0966,-0.0956,-0.0968,-0.0939,-0.0893,-0.0857,-0.091,-0.0789,-0.0784,-0.0731,-0.0713,-0.0885,-0.0771,-0.0769,-0.0767,-0.0766,0,-0.0658,-0.0678,-0.0707,-0.0756,-0.0771,-0.0796,-0.0846,-0.0879,-0.0916,-0.0955,-0.0966,-0.0963,-0.0933,-0.0943,-0.0845,-0.0879,-0.0828,-0.0793,-0.0789,-0.069,-0.0708,-0.0747,-0.0748,-0.0749,-0.0751,-0.0752,-0.0753,0,-0.0602,-0.0657,-0.0679,-0.0698,-0.0751,-0.0798,-0.0832,-0.0876,-0.0906,-0.0963,-0.0964,-0.0948,-0.0931,-0.0876,-0.0801,-0.0821,-0.0686,-0.0717,-0.061,-0.0606,-0.0661,-0.0663,-0.0632,-0.0632,-0.0633,-0.0633,-0.0633,0,-0.0578,-0.0602,-0.0666,-0.0682,-0.071,-0.0768,-0.0816,-0.0869,-0.0918,-0.0903,-0.0954,-0.0916,-0.0908,-0.0834,-0.0785,-0.0649,-0.0672,-0.0575,-0.0564,-0.0697,-0.0704,-0.0654,-0.0658,-0.0629,-0.063,-0.063,-0.0631,0,-0.0538,-0.0579,-0.061,-0.0672,-0.0695,-0.0726,-0.0813,-0.0835,-0.0888,-0.0878,-0.0886,-0.0874,-0.0775,-0.0745,-0.0649,-0.0602,-0.0513,-0.0462,-0.0582,-0.0586,-0.0454,-0.0463,-0.0324,-0.032,-0.0318,-0.0315,-0.0314,0,-0.053,-0.054,-0.0597,-0.062,-0.0669,-0.0724,-0.075,-0.0826,-0.0827,-0.081,-0.0767,-0.0708,-0.0678,-0.0506,-0.0492,-0.0406,-0.0396,-0.0356,-0.0412,-0.0413,-0.0417,-0.0431,-0.0443,-0.0309,-0.0309,-0.0308,-0.0307,0,-0.051,-0.0541,-0.0557,-0.0591,-0.0636,-0.0667,-0.07,-0.0698,-0.0732,-0.0744,-0.0643,-0.0593,-0.0479,-0.0431,-0.0377,-0.0315,-0.0395,-0.0328,-0.0334,-0.0386,-0.0395,-0.0404,-0.042,-0.0298,-0.0299,-0.03,-0.0301,0,-0.0501,-0.0503,-0.0532,-0.0564,-0.0601,-0.0616,-0.0644,-0.0619,-0.0627,-0.0593,-0.0533,-0.0479,-0.0453,-0.0374,-0.0308,-0.0266,-0.0255,-0.0251,-0.0261,-0.0271,-0.0305,-0.0311,-0.0147,0,0,0,0,0,-0.0488,-0.0494,-0.0511,-0.054,-0.057,-0.0595,-0.0602,-0.0618,-0.0606,-0.0516,-0.0537,-0.0433,-0.0344,-0.0316,-0.0256,-0.0269,-0.0264,-0.0196,-0.027,-0.0246,-0.0257,-0.0303,0,0,0,0,0,0,-0.0487,-0.0497,-0.0495,-0.0514,-0.0533,-0.0558,-0.0569,-0.0559,-0.0508,-0.0488,-0.0445,-0.0401,-0.0329,-0.0378,-0.025,-0.0237,-0.0269,-0.0157,-0.0155,-0.024,-0.025,-0.0259,-0.0309,0,0,0,0,0]}]]